Regional Weather Roundup
Issued by NWS Charleston, SC

Current Version | Previous Version | Graphics & Text | Print | Product List | Glossary On
Versions: 1 2 3 4 5 6 7 8 9 10 11 12 13 14 15 16 17 18 19 20 21 22 23 24 25 26 27 28 29 30 31 32 33 34 35 36 37 38 39 40 41 42 43 44 45 46 47 48 49 50
000
ASUS42 KCHS 231325
RWRCHS

REGIONAL WEATHER ROUNDUP
NATIONAL WEATHER SERVICE CHARLESTON SC
900 AM EDT THU OCT 23 2014

NOTE: "FAIR" INDICATES FEW OR NO CLOUDS BELOW 12,000 FEET WITH NO
SIGNIFICANT WEATHER AND/OR OBSTRUCTIONS TO VISIBILITY.

NOT ALL STATIONS ARE QUALITY CONTROLLED BY THE NATIONAL
WEATHER SERVICE. USE DATA WITH CAUTION...ESPECIALLY
DEWPOINT OBSERVATIONS.

SCZ027-030-031-034>040-042>050-231400-
...SOUTH CAROLINA...

CITY           SKY/WX    TMP DP  RH WIND       PRES   REMARKS
N CHARLESTON   SUNNY     52  45  77 NW6       30.09R
WATERFRONT PRK   N/A     55 N/A N/A N7          N/A
FORT JOHNSON   NOT AVBL
JOHNS ISLAND   SUNNY     57  48  72 N6        30.09S
PINOPOLIS      NOT AVBL
MONCKS CORNER  FAIR      57  48  72 N6        30.08S
SUMMERVILLE    FAIR      48  46  93 NW3       30.10S
BEAUFORT MCAS  SUNNY     53  44  71 N8        30.10R
BEAUFORT ARPT  FAIR      54  46  76 N6        30.10R
HILTON HEAD IS SUNNY     55  46  71 N7        30.10R
GEORGETOWN     NOT AVBL
WALTERBORO     SUNNY     52  45  76 N5        30.11R
ORANGEBURG     SUNNY     47  41  80 NW5       30.10R
BARNWELL       FAIR      52  43  71 CALM      30.12R
AIKEN          FAIR      52  43  71 N5        30.14R
MANNING        FAIR      52  46  82 N5        30.09R
KINGSTREE      NOT AVBL
COLUMBIA       SUNNY     48  42  80 S5        30.10R
SUMTER         SUNNY     51  42  71 N7        30.07R
FLORENCE       SUNNY     51  42  71 NW7       30.06S
MYRTLE BEACH   SUNNY     50  41  71 NW12      30.06S
N MYRTLE BEACH SUNNY     50  43  77 NW6       30.05R

$$

GAZ063-065-086>088-099>101-113>116-118-119-134-136>141-150-231400-
...GEORGIA...

CITY           SKY/WX    TMP DP  RH WIND       PRES   REMARKS
SAVANNAH ARPT  SUNNY     52  44  74 CALM      30.11R
HUNTER AAF     SUNNY     53  45  73 N7        30.09R
FORT STEWART   SUNNY     51  44  77 CALM      30.10R
STATESBORO     NOT AVBL
SYLVANIA       SUNNY     53  50  88 NW3       30.13R
CLAXTON        FAIR      46  46 100 CALM      30.12R
THOMSON        SUNNY     46  46 100 CALM      30.16S
AUGUSTA-BUSH   SUNNY     46  42  86 CALM      30.12R
AUGUSTA-DANIEL SUNNY     50  40  68 N7        30.12R
SWAINSBORO     FAIR      55  45  67 MISG      30.13R
VIDALIA        SUNNY     52  45  76 NE5       30.13R
ALMA           SUNNY     51  44  77 E5        30.11R
WAYCROSS       SUNNY     55  49  81 E5        30.11R
JESUP          FAIR      54  46  76 NE6       30.12R
BRUNSWICK      SUNNY     55  50  82 CALM      30.11R
SAINT SIMONS   SUNNY     55  52  89 N9        30.08R

$$

SCZ027-028-034-036>038-045-046-048>050-GAZ119-141-231400-
...LAKE AND SUPPLEMENTAL COASTAL OBSERVATIONS...

STATION/POSITION TIME  TEMP    WIND        PRES    WAVE   SWELL
                       AIR SEA DIR/SP/G            HT/PER HT/PER/DIR
                 (UTC) (F)     (DEG/KT/KT) (MB)    (FT/S) (FT/S/D)
UPR LAKE MARION  NOT AVBL
WINYAH BAY       1300   49     320/  7     1018.0S
LAKE MURRAY      1300   49     320/  3/  7 1019.0R
ACE BASIN NERRS  1300   50     360/  3     1018.0S
FORT PULASKI     1300   54     350/  6/  8 1019.4R
SAPELO ISLAND    NOT AVBL

$$

ANZ835-935-AMZ111-154-330-350-352-354-374-450-454-472-231400-
...C-MAN AND BUOY OBSERVATIONS...

STATION/POSITION TIME  TEMP    WIND        PRES    WAVE   SWELL
                       AIR SEA DIR/SP/G            HT/PER HT/PER/DIR
                 (UTC) (F)     (DEG/KT/KT) (MB)    (FT/S) (FT/S/D)
FOLLY BEACH CMAN 1300   57     350/ 11/ 15 1018.8S
BUOY 41004       1300   62 78  340/ 10/ 16 1017.2R   4/ 5   3/ 6
BUOY 41008       1300   65 75   40/  8/ 10 1018.2R   3/ 5   3/ 50/ 5
5E ST. MARYS GA  1300      76                N/A     3/ 5
FRYING PAN BUOY  1300   60 74  340/ 14/ 17 1017.3R   4/ 5   2/160/10
BUOY 41025       1300   59     310/ 27/ 33 1012.3R   7/ 6   2/ 40/ 9
CAPE LOOKOUT NC  1300   55     320/ 14/ 17 1015.1R
BUOY 41002       1234   71 78  300/ 17/ 21 1014.4R   7/ 8
BUOY 41010       1300   73 81   20/ 12/ 16 1015.6R   4/ 7   3/350/ 7
BUOY 41012       NOT AVBL
ST AUGUSTINE FL  1300   69      30/ 14/ 16 1017.7R
CAPERS NEARSHORE NOT AVBL
FRIPP NEARSHORE  NOT AVBL


$$



USA.gov is the U.S. government's official web portal to all federal, state and local government web resources and services.